CRC

 

 

Crooked River Challenge - PBCC

Station: Powell Butte CC - T Race

Distance: 26.479 Miles    

Release: 21-Jul-2021 07:51

Weather Release:    Arrival:

Wind at Release:     Wind at Arrival:

Temp at Release: °    Temp at Arrival: °

Lofts: 233

Birds: 1014

Clocked: 1008

Groups 7:51-8:40
Drops Pos Breeder Pigeon Name Color Sex Ent Arrival Speed To Win Elg PdOpB
1 Sikon Loft - IL 37115-AU21-ARPU SLT H 1 08:04:29.64 3453.587 00:00:00 Yes
2 Andrew E. Skwiat - IN 0008-AU21-ANDY BBSP C 1 08:34:04.89 1081.734 00:29:35 Yes
3 Linda Loft - PA 0030-IF21-LIND 285--3019 BB H 1 08:34:05.35 1081.541 00:29:36 Yes
4 Kelly Ward - IN 0009-AU21-FAM BB C 1 08:34:05.69 1081.399 00:29:36 Yes
5 A-Lo-Loft - NY 2029-AU21-ALOL ☯️☯️2888☯️☯ BB H 1 08:34:06.66 1080.993 00:29:37 Yes
6 123 Bird Love to Fly Loft - CA 0361-AU21-VIP BC H 1 08:34:08.05 1080.413 00:29:38 Yes
7 Ganus Family Loft - IN 0779-AU21-GFL BB H 1 08:34:08.40 1080.267 00:29:39 Yes
8 Lone Oak Loft - TX 2127-AU21-LOL Nick-Natty-3 BBSP H 1 08:34:09.94 1079.624 00:29:40 Yes
9 Kolvenbag & Son - PA 1519-IF21-KOLV BC H 1 08:34:10.67 1079.320 00:29:41 Yes
10 Ganus Family Loft - IN 0782-AU21-GFL BBWF H 2 08:34:12.21 1078.679 00:29:43 Yes
11 FamilyLoft - IN 0022-AU21-FAM BB H 1 08:34:12.32 1078.633 00:29:43 Yes
12 Greek Connection - SC 0017-AU21-GRK RIP CURL BBSP H 1 08:34:17.40 1076.523 00:29:48 Yes
13 Guo Fu Loft - DC 4401-IF21-FOYS BCSP C 1 08:34:17.99 1076.279 00:29:48 Yes
14 W T J Loft - TX 0243-AU21-WTJ WTJ 243💰💰🥇 BC H 1 08:34:19.51 1075.650 00:29:50 Yes
15 Marlee Doms - IN 4959-AU21-VITA BCSP H 1 08:34:22.80 1074.290 00:29:53 Yes
16 ⚡ Lightning Loft ⚡ - FL 22312-AU21-ARPU 426x18388 BB H 1 08:34:23.38 1074.051 00:29:54 Yes
17 Tx Lin Loft - TX 0059-AU21-TXLN BC C 1 08:34:23.88 1073.844 00:29:54 Yes
18 Kolvenbag & Son - PA 1511-IF21-KOLV BC H 2 08:34:26.08 1072.938 00:29:56 Yes
19 Jimmy Zheng Loft - MS 0872-AU21-JIMM BB C 1 08:34:26.94 1072.584 00:29:57 Yes
20 The X-Loft - IN 0078-AU21-XLFT “YP2 Girl” ❌ BB H 1 08:34:27.01 1072.555 00:29:57 Yes
21 MjLoft - CA 24691-AU21-JEDD BB H 1 08:34:27.25 1072.456 00:29:58 Yes
22 Nanez Family Loft - WI 1002-AU21-NANZ BB H 1 08:34:28.32 1072.017 00:29:59 Yes
23 Y Mtn Loft - TN 26516-AU21-YMTN 🚀🚀26189×68🚀🚀 BB H 1 08:34:28.91 1071.774 00:29:59 Yes
24 Genesis Syndicate Loft - AZ 0148-AU21-GEN BBWF H 1 08:34:29.29 1071.618 00:30:00 Yes
25 Kfly Racing Pigeon Loft - ID 2101-AU21-KFLY Doc Bar X Royal Boon 01 FADE C 1 08:34:29.62 1071.482 00:30:00 Yes
26 Shi Loft - PA 2204-IF21-ERIE BB H 1 08:34:29.74 1071.433 00:30:00 Yes
27 Golden State Syndicate - CA 0930-AU21-JEDD TatangXSt.Joseph=SANAall BB H 1 08:34:30.47 1071.134 00:30:01 Yes
28 379 Loft - FL 53837-AU21-ARPU El Toro Loco BB H 1 08:34:31.17 1070.846 00:30:02 Yes
29 Aztec Loft - DE 0150-AU21-AZTC BC C 1 08:34:33.62 1069.843 00:30:04 Yes
30 Ming Liang You - NY 89309-AU21-ARPU BC C 1 08:34:33.63 1069.839 00:30:04 Yes
31 Western Loft - CA 35822-AU21-JEDD BBSP C 1 08:34:34.67 1069.413 00:30:05 Yes
32 Alas de Oro - NV 0949-IF21-E DC H 1 08:34:34.92 1069.311 00:30:05 Yes
33 3 Marie 1 Thomas - IL 10548-AU21-AA Hawkins CHOC H 1 08:34:35.62 1069.025 00:30:06 Yes
34 Highland Loft - NY 1033-AU21-DZ NL17-1579796X 51 BBWF H 1 08:34:35.97 1068.882 00:30:06 Yes
35 Anshutz Family Lofts - WA 6022-AU21-LKC BB H 1 08:34:39.18 1067.572 00:30:10 Yes
36 Transilvania Loft - NV 0323-AU21-CIMP BB H 1 08:34:40.15 1067.176 00:30:11 Yes
37 The Chosen Few - MI 83131-AU21-ARPU 8190 x 79 BB H 1 08:34:40.60 1066.993 00:30:11 Yes
38 Xiao Loft - WI 0920-AU21-RAC BBWF C 1 08:34:41.21 1066.745 00:30:12 Yes
39 Da-Dong - WI 0639-AU21-RAC 971-8162 BBWF H 1 08:34:42.86 1066.074 00:30:13 Yes
40 Gold Star Loft - FL 1818-AU21-STON BC H 1 08:34:44.03 1065.598 00:30:14 Yes
41 Anshutz Family Lofts - WA 6009-AU21-LKC BB C 2 08:34:46.06 1064.775 00:30:16 Yes
42 Balikbayan Express - WA 8709-AU21-JEDD BBSP H 1 08:34:46.53 1064.584 00:30:17 Yes
43 Linda Loft - PA 0028-IF21-LIND 637--4 BB C 2 08:34:48.74 1063.689 00:30:19 Yes
44 Linda Loft - PA 0090-IF21-LIND TFC602---TFC1052 BC H 3 08:34:49.09 1063.548 00:30:19 Yes
45 Mesopotamia Loft - CA 0075-AU21-MESO BB H 1 08:34:50.26 1063.074 00:30:21 Yes
46 Anshutz Family Lofts - WA 6023-AU21-LKC BB H 3 08:34:50.41 1063.014 00:30:21 Yes
47 Syndicate Lofts - UK 38201-GB21-V BBWF C 1 08:34:53.29 1061.851 00:30:24 Yes
48 Flying D Loft - TX 1292-AU21-FLYD Flyd 551 / Flyd 744 BB H 1 08:34:54.93 1061.190 00:30:25 Yes
49 Rottweiler Company Loft - MI 22224-AU21-ARPU DC H 1 08:34:56.48 1060.566 00:30:27 Yes
50 Alas de Oro - NV 0940-IF21-E BC H 2 08:34:57.20 1060.277 00:30:28 Yes
51 Ramirez Loft - TX 1305-AU21-DALL BB H 1 08:34:57.77 1060.048 00:30:28 Yes
52 98 M J Loft - PA 0031-AU21-JIAN BC C 1 08:34:58.92 1059.586 00:30:29 Yes
53 Syndicate Lofts - UK 38202-GB21-V BBT H 2 08:34:59.19 1059.477 00:30:30 Yes
54 Canby and Chiang - CA 8509-AU21-BON BB H 1 08:35:01.43 1058.579 00:30:32 Yes
55 7 Cha Brothers Loft - MN 0415-AU21-UNIT Kannibaal x Greek’s Gif BB C 1 08:35:02.49 1058.154 00:30:33 Yes
56 Gold Star Loft - FL 1820-AU21-STON BB H 2 08:35:02.84 1058.014 00:30:33 Yes
57 Shi Loft - PA 2232-IF21-ERIE BB H 2 08:35:03.10 1057.910 00:30:33 Yes
58 Bob & Rusty - NV 20204-AU21-JEDD BBWF H 1 08:35:03.22 1057.862 00:30:34 Yes
59 Highland Loft - NY 22710-AU21-AA 6034/Sco98 BC C 2 08:35:04.06 1057.526 00:30:34 Yes
60 Aviario Corona - CA 34264-AU21-JEDD BCT H 1 08:35:07.35 1056.212 00:30:38 Yes
61 Deko - UT 8545-AU21-AA DCWF H 1 08:35:07.94 1055.976 00:30:38 Yes
62 Ming Liang You - NY 89305-AU21-ARPU BCWF C 2 08:35:11.22 1054.670 00:30:42 Yes
63 Panfamilyloft - VA 23079-AU21-FOYS BCWF H 1 08:35:12.61 1054.117 00:30:43 Yes
64 3 Marie 1 Thomas - IL 10541-AU21-AA Powell BB C 2 08:35:13.10 1053.923 00:30:43 Yes
65 Lottery Loft - IL 2702-AU21-CHIC BB H 1 08:35:14.26 1053.462 00:30:45 Yes
66 Greek Connection - SC 0014-AU21-GRK KRONOS BC C 2 08:35:15.08 1053.137 00:30:45 Yes
67 Ganus Family Loft - IN 0957-AU21-GFL BBWF H 3 08:35:16.50 1052.574 00:30:47 Yes
68 Rottweiler Company Loft - MI 22201-AU21-ARPU BC C 2 08:35:17.33 1052.245 00:30:48 Yes
69 Eastern Pearl Loft - VA 0920-AU21-EPL 大❤️🈚️量920 BB C 1 08:35:19.46 1051.402 00:30:50 Yes
70 Martinez Classic OLR - CA 1862-AU21-MML BB H 1 08:35:22.63 1050.150 00:30:53 Yes
71 Sunshine Loft 2 - SC 0340-AU21-PAK 591/671 BB C 1 08:35:25.40 1049.059 00:30:56 Yes
72 123 Bird Love to Fly Loft - CA 0216-AU21-Y2K BB H 2 08:35:28.83 1047.711 00:30:59 Yes
73 John Karnofel - CA 0317-AU21-KFL PERFECT LEG HEN BC H 1 08:35:29.88 1047.299 00:31:00 Yes
74 Baczynski Loft - IN 5857-AU21-VITA BB C 1 08:35:31.16 1046.797 00:31:02 Yes
75 Brooklyn Loft - NY 0808-IF21-JRC SIL C 1 08:35:33.75 1045.783 00:31:04 Yes
76 Jack The Reaper Loft - CA 0251-AU21-FVC BB H 1 08:35:34.58 1045.458 00:31:05 Yes
77 Xiao Loft - WI 0914-AU21-RAC BB H 2 08:35:37.25 1044.416 00:31:08 Yes
78 Irishsyndicatelofts - AZ 44030-AU21-ARPU BB H 1 08:35:38.43 1043.956 00:31:09 Yes
79 Vasquez Lofts - CA 0010-AU21-VL BC C 1 08:35:38.65 1043.870 00:31:09 Yes
80 Greek Connection - SC 0026-AU21-GRK WICKED II BBSP H 3 08:35:38.90 1043.772 00:31:09 Yes
81 Jones Family Loft - TX 1276-AU21-JFL BB C 1 08:35:40.46 1043.165 00:31:11 Yes
82 Genesis Syndicate Loft - AZ 0132-AU21-GEN BBWF C 2 08:35:41.52 1042.753 00:31:12 Yes
83 Ganus Family Loft - IN 0810-AU21-GFL BB H 4 08:35:41.64 1042.706 00:31:12 Yes
84 Ganus Family Loft - IN 0783-AU21-GFL BB C 5 08:35:42.69 1042.298 00:31:13 Yes
85 Dyson/Roberts - UT 0023-AU21-DYSO BBSP H 1 08:35:42.91 1042.212 00:31:13 Yes
86 Nanez Family Loft - WI 1017-AU21-NANZ CHCK H 2 08:35:43.43 1042.010 00:31:14 Yes
87 ⚡ Lightning Loft ⚡ - FL 22322-AU21-ARPU 875x37323 BB H 2 08:35:43.67 1041.917 00:31:14 Yes
88 Any Given Day Loft - TX 21041-AU21-ANY BB C 1 08:35:45.42 1041.238 00:31:16 Yes
89 Marlee Doms - IN 4954-AU21-VITA BBSP H 2 08:35:45.78 1041.099 00:31:16 Yes
90 Eastern Pearl Loft - VA 0930-AU21-EPL 大❤️🈚️量930 BC C 2 08:35:46.26 1040.913 00:31:17 Yes
91 Ganus Family Loft - IN 0956-AU21-GFL BBWF C 6 08:35:49.84 1039.527 00:31:20 Yes
92 Matsuzaka Marti Loft - FL 51904-AU21-ARPU CHWF H 1 08:35:50.80 1039.156 00:31:21 Yes
93 Jodt Loft - WI 1701-AU21-FOYS Skinny BB H 1 08:35:50.92 1039.110 00:31:21 Yes
94 John Gutierrez - NM 21004-AU21-GUTZ 19816/intel BB H 1 08:35:51.52 1038.878 00:31:22 Yes
95 A-Lo-Loft - NY 2007-AU21-ALOL ☯️Conman II☯ BB H 2 08:35:51.63 1038.836 00:31:22 Yes
96 Dyson's Legacy - UT 0008-AU21-DYSO BB C 1 08:35:51.86 1038.747 00:31:22 Yes
97 Sunshine Loft 2 - SC 0339-AU21-PAK 550/9536 BB H 2 08:35:52.10 1038.655 00:31:22 Yes
98 A-Lo-Loft - NY 2030-AU21-ALOL ☯️☯️50☯️☯ BCWF H 3 08:35:53.49 1038.119 00:31:24 Yes
99 Matsuzaka Marti Loft - FL 51932-AU21-ARPU BB H 2 08:35:54.35 1037.787 00:31:25 Yes
100 Maestas Loft - NM 0144-AU21-CHAM BB H 1 08:35:55.87 1037.202 00:31:26 Yes

There are 1009 bird records

Note: These Race Results are unofficial and subject to change until verified by the Race Committee and declared final.